Winnipeg 'A' Cs, Canada

7:49 AM CST on February 07, 2016 (GMT -0600)
Winnipeg International

Weather History for CYWG - September, 2013

Change the Weather History Date:

Tuesday, September 24, 2013

  Actual Average Record
Temperature  
Mean Temperature 66 °F -  
Max Temperature 77 °F 59 °F 86 °F (1997)
Min Temperature 55 °F 38 °F 32 °F (2001)
Cooling Degree Days 1    
Growing Degree Days 16 (Base 50)    
Moisture  
Dew Point 47 °F    
Average Humidity 60    
Maximum Humidity 94    
Minimum Humidity 24    
Precipitation  
Precipitation 0.04 in - - ()
Sea Level Pressure  
Sea Level Pressure 29.80 in    
Wind  
Wind Speed 8 mph ()    
Max Wind Speed 15 mph    
Max Gust Speed 25 mph    
Visibility 14.6 miles    
Events Rain    
Averages and records for this station are not official NWS values.
T = Trace of Precipitation, MM = Missing Value Source: Averaged Metar Reports

Daily Weather History Graph

Daily Weather History Graph

Search for Another Location

Airport or City:

Trip Planner

Search our weather history database for the weather conditions in past years. The results will help you decide how hot, cold, wet, or windy it might be!

Date:

Astronomy

Sep. 24, 2013 Rise Set
Actual Time 7:18 AM CDT 7:21 PM CDT
Civil Twilight 6:46 AM CDT 7:53 PM CDT
Nautical Twilight 6:08 AM CDT 8:31 PM CDT
Astronomical Twilight 5:29 AM CDT 9:10 PM CDT
Moon 10:10 PM CDT (9/24) 1:04 PM CDT (9/24)
Length of Visible Light 13h 07m
Length of Day
12h 03m
Waning Gibbous, 73% of the Moon is Illuminated
Sep 24
Waning Gibbous
Sep 26
Last Quarter
Oct 4
New
Oct 11
First Quarter
Oct 18
Full

Hourly Weather History & Observations

Time (CDT) Temp. Dew Point Humidity Pressure Visibility Wind Dir Wind Speed Gust Speed Precip Events Conditions
12:00 AM 60.8 °F 55.4 °F 82% 29.70 in 15.0 mi West 13.8 mph 23.0 mph N/A   Overcast
1:00 AM 60 °F 59 °F 94% 29.71 in - Calm Calm - -   Overcast
1:00 AM 59.0 °F 55.4 °F 88% 29.72 in 15.0 mi West 3.5 mph - N/A   Overcast
1:53 AM 59.0 °F 53.6 °F 82% 29.76 in 15.0 mi SW 6.9 mph - N/A Rain Light Rain
2:00 AM 59.0 °F 53.6 °F 82% 29.75 in 15.0 mi SW 5.8 mph - N/A Rain Light Rain
2:42 AM 59.0 °F 55.4 °F 88% 29.76 in 15.0 mi SSW 6.9 mph - N/A   Mostly Cloudy
3:00 AM 57.2 °F 55.4 °F 94% 29.76 in 15.0 mi SSW 5.8 mph - N/A   Mostly Cloudy
4:00 AM 57.2 °F 53.6 °F 88% 29.78 in 15.0 mi South 9.2 mph - N/A   Mostly Cloudy
5:00 AM 57.2 °F 53.6 °F 88% 29.78 in 15.0 mi South 9.2 mph - N/A   Mostly Cloudy
6:00 AM 57.2 °F 53.6 °F 88% 29.78 in 15.0 mi South 10.4 mph - N/A   Mostly Cloudy
7:00 AM 56 °F 55 °F 94% 29.79 in - Calm Calm - -  
7:00 AM 55.4 °F 51.8 °F 88% 29.80 in 15.0 mi South 12.7 mph - N/A   Mostly Cloudy
8:00 AM 55.4 °F 51.8 °F 88% 29.81 in 15.0 mi SSW 13.8 mph - N/A   Mostly Cloudy
9:00 AM 59.0 °F 51.8 °F 77% 29.82 in 15.0 mi SSW 10.4 mph - N/A   Partly Cloudy
10:00 AM 62.6 °F 50.0 °F 63% 29.83 in 15.0 mi SSW 10.4 mph - N/A   Partly Cloudy
11:00 AM 66.2 °F 50.0 °F 56% 29.84 in 15.0 mi SSW 8.1 mph - N/A   Partly Cloudy
12:00 PM 69.8 °F 50.0 °F 49% 29.85 in 15.0 mi SW 10.4 mph - N/A   Partly Cloudy
1:00 PM 74 °F 45 °F 24% 29.83 in 9 mi Calm Calm - -  
1:00 PM 75.2 °F 41.0 °F 29% 29.84 in 15.0 mi SW 12.7 mph 21.9 mph N/A   Partly Cloudy
2:00 PM 75.2 °F 37.4 °F 25% 29.83 in 15.0 mi WSW 13.8 mph 25.3 mph N/A   Partly Cloudy
3:00 PM 77.0 °F 37.4 °F 24% 29.82 in 15.0 mi West 13.8 mph 20.7 mph N/A   Partly Cloudy
4:00 PM 75.2 °F 37.4 °F 25% 29.82 in 15.0 mi WSW 15.0 mph - N/A   Partly Cloudy
5:00 PM 75.2 °F 35.6 °F 24% 29.82 in 15.0 mi WSW 15.0 mph - N/A   Partly Cloudy
6:00 PM 73.4 °F 37.4 °F 27% 29.82 in 15.0 mi WSW 11.5 mph - N/A   Partly Cloudy
7:00 PM 68 °F 41 °F 25% 29.82 in 9 mi Calm Calm - -  
7:00 PM 68.0 °F 39.2 °F 35% 29.83 in 15.0 mi WSW 8.1 mph - N/A   Partly Cloudy
8:00 PM 64.4 °F 37.4 °F 37% 29.84 in 15.0 mi WSW 5.8 mph - N/A   Partly Cloudy
9:00 PM 62.6 °F 39.2 °F 42% 29.86 in 15.0 mi WSW 5.8 mph - N/A   Clear
10:00 PM 55.4 °F 39.2 °F 54% 29.86 in 15.0 mi SSW 5.8 mph - N/A   Clear
11:00 PM 57.2 °F 39.2 °F 51% 29.87 in 15.0 mi SW 8.1 mph - N/A   Clear